When you browse on this site, cookies collect data to enhance your experience and personalize the content and advertising you see.
Visit our Privacy Policy to learn more. By continuing to use the site, you agree to this use of cookies and data.
  • In Latvia
  • List of Countries
  • For 7 days
  • Water Temperature
  • Weather Map
  • Weather Widgets
  • user-avatar
    Login

    Hourly Weather Kurgannyy

    Today, 21 August, Wednesday

    Time Temperature Precipitation Wind Pressure Humidity
    00:00 +29°C° 0 mm 5 mps 754 mmHg 29%
    01:00 +28°C° 0 mm 4 mps 754 mmHg 31%
    02:00 +28°C° 0 mm 4 mps 754 mmHg 33%
    03:00 +27°C° 0 mm 3 mps 754 mmHg 35%
    04:00 +26°C° 0 mm 3 mps 754 mmHg 37%
    05:00 +26°C° 0 mm 3 mps 754 mmHg 38%
    06:00 +25°C° 0 mm 3 mps 754 mmHg 40%
    07:00 +28°C° 0 mm 3 mps 754 mmHg 35%
    08:00 +30°C° 0 mm 3 mps 754 mmHg 31%
    09:00 +33°C° 0 mm 3 mps 755 mmHg 26%
    10:00 +34°C° 0 mm 3 mps 754 mmHg 23%
    11:00 +36°C° 0 mm 4 mps 754 mmHg 19%
    12:00 +37°C° 0 mm 4 mps 754 mmHg 16%
    13:00 +38°C° 0 mm 4 mps 753 mmHg 15%
    14:00 +40°C° 0 mm 4 mps 753 mmHg 14%
    15:00 +40°C° 0 mm 5 mps 753 mmHg 13%
    16:00 +40°C° 0 mm 4 mps 752 mmHg 14%
    17:00 +38°C° 0 mm 4 mps 752 mmHg 15%
    18:00 +37°C° 0 mm 3 mps 752 mmHg 17%
    19:00 +35°C° 0 mm 4 mps 752 mmHg 17%
    20:00 +34°C° 0 mm 4 mps 752 mmHg 18%
    21:00 +32°C° 0 mm 4 mps 752 mmHg 19%
    22:00 +30°C° 0 mm 4 mps 752 mmHg 22%
    23:00 +30°C° 0 mm 5 mps 752 mmHg 26%

    Tomorrow, 22 August, Thursday

    Time Temperature Precipitation Wind Pressure Humidity
    00:00 +29°C° 0 mm 5 mps 752 mmHg 29%
    01:00 +28°C° 0 mm 4 mps 752 mmHg 30%
    02:00 +27°C° 0 mm 4 mps 752 mmHg 31%
    03:00 +27°C° 0 mm 3 mps 752 mmHg 32%
    04:00 +27°C° 0 mm 3 mps 752 mmHg 32%
    05:00 +26°C° 0 mm 3 mps 752 mmHg 31%
    06:00 +26°C° 0 mm 3 mps 752 mmHg 31%
    07:00 +28°C° 0 mm 3 mps 752 mmHg 28%
    08:00 +32°C° 0 mm 4 mps 752 mmHg 24%
    09:00 +34°C° 0 mm 4 mps 752 mmHg 21%
    10:00 +36°C° 0 mm 4 mps 752 mmHg 18%
    11:00 +39°C° 0 mm 5 mps 752 mmHg 16%
    12:00 +41°C° 0 mm 5 mps 752 mmHg 14%
    13:00 +41°C° 0 mm 5 mps 752 mmHg 13%
    14:00 +41°C° 0 mm 5 mps 751 mmHg 13%
    15:00 +41°C° 0 mm 5 mps 751 mmHg 12%
    16:00 +41°C° 0 mm 4 mps 751 mmHg 13%
    17:00 +40°C° 0 mm 4 mps 751 mmHg 15%
    18:00 +38°C° 0 mm 3 mps 751 mmHg 16%
    19:00 +36°C° 0 mm 3 mps 751 mmHg 17%
    20:00 +35°C° 0 mm 3 mps 751 mmHg 17%
    21:00 +33°C° 0 mm 3 mps 752 mmHg 18%
    22:00 +31°C° 0 mm 3 mps 752 mmHg 20%
    23:00 +30°C° 0 mm 3 mps 752 mmHg 21%

    Day after tomorrow, 23 August, Friday

    Time Temperature Precipitation Wind Pressure Humidity
    00:00 +30°C° 0 mm 2 mps 752 mmHg 22%
    01:00 +29°C° 0 mm 3 mps 752 mmHg 23%
    02:00 +29°C° 0 mm 3 mps 752 mmHg 25%
    03:00 +28°C° 0 mm 4 mps 752 mmHg 26%
    04:00 +28°C° 0 mm 3 mps 752 mmHg 28%
    05:00 +27°C° 0 mm 3 mps 752 mmHg 30%
    06:00 +27°C° 0 mm 3 mps 752 mmHg 32%
    07:00 +29°C° 0 mm 3 mps 752 mmHg 29%
    08:00 +31°C° 0 mm 3 mps 753 mmHg 26%
    09:00 +35°C° 0 mm 3 mps 753 mmHg 23%
    10:00 +36°C° 0 mm 4 mps 753 mmHg 20%
    11:00 +38°C° 0 mm 4 mps 752 mmHg 17%
    12:00 +41°C° 0 mm 4 mps 752 mmHg 15%
    13:00 +41°C° 0 mm 5 mps 752 mmHg 14%
    14:00 +42°C° 0 mm 5 mps 752 mmHg 14%
    15:00 +42°C° 0 mm 5 mps 751 mmHg 13%
    16:00 +41°C° 0 mm 5 mps 751 mmHg 14%
    17:00 +40°C° 0 mm 4 mps 751 mmHg 16%
    18:00 +38°C° 0 mm 3 mps 751 mmHg 17%
    19:00 +37°C° 0 mm 4 mps 751 mmHg 18%
    20:00 +36°C° 0 mm 4 mps 752 mmHg 18%
    21:00 +34°C° 0 mm 5 mps 752 mmHg 19%
    22:00 +34°C° 0 mm 6 mps 752 mmHg 22%
    23:00 +33°C° 0 mm 7 mps 752 mmHg 25%

    24 August, Saturday

    Time Temperature Precipitation Wind Pressure Humidity
    00:00 +33°C° 0 mm 8 mps 752 mmHg 27%
    01:00 +32°C° 0 mm 7 mps 752 mmHg 28%
    02:00 +30°C° 0 mm 6 mps 752 mmHg 30%
    03:00 +29°C° 0 mm 5 mps 752 mmHg 31%
    04:00 +29°C° 0 mm 5 mps 752 mmHg 33%
    05:00 +29°C° 0 mm 5 mps 752 mmHg 34%
    06:00 +28°C° 0 mm 5 mps 752 mmHg 36%
    07:00 +29°C° 0 mm 5 mps 753 mmHg 35%
    08:00 +32°C° 0 mm 6 mps 753 mmHg 33%
    09:00 +33°C° 0 mm 6 mps 753 mmHg 32%
    10:00 +35°C° 0 mm 6 mps 753 mmHg 29%
    11:00 +36°C° 0 mm 6 mps 753 mmHg 25%
    12:00 +39°C° 0 mm 6 mps 753 mmHg 22%
    13:00 +40°C° 0 mm 6 mps 753 mmHg 21%
    14:00 +40°C° 0 mm 6 mps 753 mmHg 20%
    15:00 +41°C° 0 mm 7 mps 752 mmHg 18%
    16:00 +40°C° 0 mm 6 mps 752 mmHg 19%
    17:00 +39°C° 0 mm 6 mps 752 mmHg 21%
    18:00 +39°C° 0 mm 5 mps 752 mmHg 22%
    19:00 +36°C° 0 mm 6 mps 753 mmHg 25%
    20:00 +35°C° 0 mm 7 mps 753 mmHg 28%
    21:00 +33°C° 0 mm 8 mps 753 mmHg 31%
    22:00 +32°C° 0 mm 7 mps 753 mmHg 33%
    23:00 +30°C° 0 mm 6 mps 753 mmHg 35%

    25 August, Sunday

    Time Temperature Precipitation Wind Pressure Humidity
    00:00 +29°C° 0 mm 5 mps 753 mmHg 37%
    01:00 +29°C° 0 mm 5 mps 753 mmHg 41%
    02:00 +28°C° 0 mm 4 mps 752 mmHg 45%
    03:00 +27°C° 0 mm 3 mps 752 mmHg 49%
    04:00 +27°C° 0 mm 4 mps 752 mmHg 51%
    05:00 +27°C° 0 mm 4 mps 753 mmHg 52%
    06:00 +26°C° 0 mm 4 mps 753 mmHg 53%
    07:00 +28°C° 0 mm 4 mps 753 mmHg 50%
    08:00 +29°C° 0 mm 4 mps 753 mmHg 46%
    09:00 +30°C° 0 mm 5 mps 753 mmHg 42%
    10:00 +32°C° 0 mm 5 mps 753 mmHg 38%
    11:00 +34°C° 0 mm 5 mps 753 mmHg 34%
    12:00 +35°C° 0 mm 5 mps 753 mmHg 30%
    13:00 +35°C° 0 mm 6 mps 753 mmHg 30%
    14:00 +34°C° 0 mm 6 mps 753 mmHg 29%
    15:00 +34°C° 0 mm 7 mps 753 mmHg 29%
    16:00 +33°C° 0 mm 7 mps 753 mmHg 32%
    17:00 +32°C° 0 mm 7 mps 753 mmHg 35%
    18:00 +29°C° 0 mm 8 mps 753 mmHg 39%
    19:00 +28°C° 0 mm 6 mps 753 mmHg 44%
    20:00 +26°C° 0 mm 4 mps 753 mmHg 49%
    21:00 +25°C° 0 mm 2 mps 753 mmHg 54%
    22:00 +26°C° 0 mm 2 mps 753 mmHg 50%
    23:00 +26°C° 0 mm 3 mps 753 mmHg 47%

    26 August, Monday

    Time Temperature Precipitation Wind Pressure Humidity
    00:00 +26°C° 0 mm 3 mps 754 mmHg 43%
    01:00 +27°C° 0 mm 3 mps 753 mmHg 42%
    02:00 +27°C° 0 mm 4 mps 753 mmHg 41%
    03:00 +27°C° 0 mm 5 mps 753 mmHg 40%
    04:00 +27°C° 0 mm 5 mps 754 mmHg 41%
    05:00 +27°C° 0 mm 5 mps 754 mmHg 43%
    06:00 +26°C° 0 mm 5 mps 754 mmHg 44%
    07:00 +28°C° 0 mm 4 mps 754 mmHg 40%
    08:00 +30°C° 0 mm 4 mps 755 mmHg 35%
    09:00 +32°C° 0 mm 4 mps 755 mmHg 31%
    10:00 +33°C° 0 mm 4 mps 755 mmHg 29%
    11:00 +34°C° 0 mm 4 mps 756 mmHg 27%
    12:00 +35°C° 0 mm 4 mps 756 mmHg 25%
    13:00 +35°C° 0 mm 4 mps 756 mmHg 26%
    14:00 +35°C° 0 mm 4 mps 756 mmHg 26%
    15:00 +35°C° 0 mm 4 mps 756 mmHg 27%
    16:00 +34°C° 0 mm 4 mps 756 mmHg 28%
    17:00 +34°C° 0 mm 5 mps 756 mmHg 29%
    18:00 +33°C° 0 mm 5 mps 756 mmHg 30%
    19:00 +32°C° 0 mm 5 mps 757 mmHg 31%
    20:00 +29°C° 0 mm 6 mps 757 mmHg 32%
    21:00 +28°C° 0 mm 6 mps 758 mmHg 33%
    22:00 +27°C° 0 mm 7 mps 758 mmHg 34%
    23:00 +26°C° 0 mm 7 mps 758 mmHg 34%
    Show more